星链-34498 (STARLINK-34498)

导读

STARLINK-34498是美国于2025年6月17日发射的星链星座卫星,属于SpaceX打造的低轨卫星互联网组网组件。星链系统旨在实现全球无缝覆盖的高速卫星互联网接入,可为偏远地区、海事、航空等场景提供网络服务,该卫星入轨后将参与星链网络扩容,进一步完善星座的服务覆盖能力与通信容量。

Basic Information
目录编号:
64421
目录名称:
STARLINK-34498
国际标识:
2025-129K
轨道中心:
EARTH
卫星名称:
星链-34498
卫星全名:
星链-34498 (STARLINK-34498)
卫星状态:
在轨 (已飞行361 天)
发射日期:
2025-06-17 UTC
国别 :
美国 (US)
星等 :
--
Orbit Information
数据来源 国际轨道数据 AOE轨道数据
星历时间 2026-06-13T19:23:11+0800
11小时前
查看轨道信息
2026-06-11T16:00:00+0800
2天前
查看轨道信息
半长轴 6950.207km 6950.167km
偏心率 0.0004101 0.0004063
轨道倾角 70.000° 69.999°
近地点辐角 266.109° 268.939°
升交点赤经 193.001° 198.398°
平近点角 93.960° 65.456°
近地点 569.219km 569.206km
远地点 574.921km 574.854km
周期 96.107分钟 96.106分钟
每日圈数 14.983256 14.983385
Detailed Information
固有亮度:
5
最大亮度:
2.5
卫星平台:
Starlink V1.0
覆盖范围:
全球
运营商:
太空探索技术公司
运营商所在国:
美国
制造商(研发单位):
太空探索技术公司
制造商所在国:
美国
使用方式:
暂无
Satellite Introduction
Starlink 计划是 SpaceX 推出的全球卫星互联网项目,通过发射低轨道卫星,为全球尤其是偏远地区提供高速、低延迟的互联网服务。自 2019 年起,Starlink 已部署数千颗卫星,旨在缩小全球数字鸿沟,推动互联网普及。该项目还为军事、航空等行业提供通信支持,带来广泛经济效益。
2D Orbit Map
3D Orbit Map
Orbit Altitude Analysis Chart
Orbit Inclination Analysis Chart
Orbit Comprehensive Analysis Chart
View Comprehensive Chart